Weather in Bolshoye Volkovo

Russia / Udmurt Republic     56°41′56″N   51°58′43″E
temp.,
°C
wind,
m/s
gust,
m/s
humid.,
%
clouds,
%
prec.,
mm/h
press.,
hPa
HPBL,
m
16 may, sun
sun1601:00+18ssw310646 0.0 1017170
04:00+17ssw310605 0.0 1017169
07:00+20ssw4125720 0.0 1017316
10:00+26ssw610385 0.0 1017726
13:00+29ssw711316 0.0 10162964
16:00+29sw6103397 0.0 10162619
19:00+24ssw4104899 0.0 1015237
22:00+20ssw355778 0.0 101660
17 may, mon
mon1701:00+17sw36655 0.0 101693
04:00+15wsw22765 0.0 101721
07:00+18wsw237083 0.0 1018152
10:00+23wsw235697 0.0 1018669
13:00+27w4941100 0.0 10171801
16:00+27w5840100 0.0 10171815
19:00+24wsw36575 0.0 1017136
22:00+19n227184 0.0 101814
18 may, tue
tue1801:00+16nnw22815 0.4 101911
04:00+15n11835 0.4 101911
07:00+18nne2372100 0.0 1020146
10:00+22nne3454100 0.0 1020675
13:00+25n3341100 0.0 10201319
16:00+25nne3339100 0.0 10201343
19:00+22ne3455100 0.0 102085
22:00+17ese3866100 0.0 1021120
19 may, wed
wed1901:00+14ese41170100 0.0 1021216
04:00+12ese3976100 0.0 1022173
07:00+15ese5975100 0.0 1023330
10:00+19ese5754100 0.0 1022690
13:00+22ese5640100 0.0 10221032
16:00+23ese5637100 0.0 10211216
19:00+20se3657100 0.0 1021122
22:00+15ese376299 0.0 102087
20 may, thu
thu2001:00+14ese396699 0.0 1020143
04:00+13se3468100 0.0 102060
07:00+17sse376599 0.0 1021201
10:00+22sse5742100 0.0 10201065
13:00+24sse683670 0.0 10201585
16:00+25sse67380 0.0 10191782
19:00+21sse38540 0.0 1018180
22:00+16sse33630 0.0 101932